When you browse on this site, cookies collect data to enhance your experience and personalize the content and advertising you see.
Visit our Privacy Policy to learn more. By continuing to use the site, you agree to this use of cookies and data.
  • In Hungary
  • List of Countries
  • For 7 days
  • Water Temperature
  • Satellite Maps
  • Weather Map
  • News
  • Weather Widgets
  • user-avatar
    Login

    Hourly Weather Berdychev

    Today, 17 February, Sunday

    Time Temperature Precipitation Wind Pressure Humidity
    00:00 -1°C° 0 mm 4 mps 744 mmHg 93%
    01:00 -1°C° 0 mm 4 mps 744 mmHg 92%
    02:00 0°C° 0 mm 3 mps 744 mmHg 93%
    03:00 0°C° 0 mm 3 mps 743 mmHg 92%
    04:00 -1°C° 0 mm 4 mps 743 mmHg 91%
    05:00 -1°C° 0 mm 4 mps 742 mmHg 90%
    06:00 -1°C° 0 mm 5 mps 742 mmHg 88%
    07:00 -1°C° 0 mm 5 mps 742 mmHg 86%
    08:00 0°C° 0 mm 5 mps 742 mmHg 84%
    09:00 +1°C° 0 mm 6 mps 741 mmHg 77%
    10:00 +3°C° 0 mm 6 mps 741 mmHg 70%
    11:00 +4°C° 0 mm 7 mps 741 mmHg 64%
    12:00 +5°C° 0 mm 7 mps 741 mmHg 64%
    13:00 +5°C° 0 mm 7 mps 741 mmHg 64%
    14:00 +8°C° 0 mm 4 mps 741 mmHg 65%
    15:00 +7°C° 0 mm 5 mps 741 mmHg 69%
    16:00 +6°C° 0 mm 5 mps 741 mmHg 73%
    17:00 +5°C° 0 mm 5 mps 741 mmHg 78%
    18:00 +3°C° 0 mm 5 mps 741 mmHg 80%
    19:00 +3°C° 0 mm 5 mps 741 mmHg 83%
    20:00 +3°C° 0 mm 5 mps 742 mmHg 85%
    21:00 +3°C° 0 mm 5 mps 742 mmHg 85%
    22:00 +2°C° 0 mm 5 mps 742 mmHg 85%
    23:00 +2°C° 0 mm 5 mps 742 mmHg 84%

    Tomorrow, 18 February, Monday

    Time Temperature Precipitation Wind Pressure Humidity
    00:00 +3°C° 0 mm 4 mps 742 mmHg 85%
    01:00 +3°C° 0 mm 4 mps 743 mmHg 86%
    02:00 +1°C° 0 mm 4 mps 743 mmHg 87%
    03:00 +1°C° 0 mm 4 mps 743 mmHg 89%
    04:00 +2°C° 0 mm 3 mps 743 mmHg 91%
    05:00 +2°C° 0 mm 3 mps 743 mmHg 92%
    06:00 +1°C° 0 mm 3 mps 744 mmHg 94%
    07:00 +1°C° 0 mm 3 mps 744 mmHg 95%
    08:00 +1°C° 0 mm 2 mps 744 mmHg 96%
    09:00 +1°C° 0 mm 3 mps 744 mmHg 88%
    10:00 +2°C° 0 mm 3 mps 745 mmHg 80%
    11:00 +3°C° 0 mm 3 mps 745 mmHg 72%
    12:00 +3°C° 0 mm 3 mps 745 mmHg 65%
    13:00 +4°C° 0 mm 3 mps 745 mmHg 57%
    14:00 +6°C° 0 mm 2 mps 745 mmHg 50%
    15:00 +5°C° 0 mm 2 mps 745 mmHg 52%
    16:00 +5°C° 0 mm 2 mps 745 mmHg 54%
    17:00 +5°C° 0 mm 1 mps 745 mmHg 56%
    18:00 +4°C° 0 mm 1 mps 745 mmHg 59%
    19:00 +4°C° 0 mm 1 mps 745 mmHg 62%
    20:00 +3°C° 0 mm 1 mps 745 mmHg 64%
    21:00 +1°C° 0 mm 2 mps 745 mmHg 67%
    22:00 +1°C° 0 mm 2 mps 745 mmHg 70%
    23:00 -1°C° 0 mm 2 mps 746 mmHg 72%

    Day after tomorrow, 19 February, Tuesday

    Time Temperature Precipitation Wind Pressure Humidity
    00:00 -1°C° 0 mm 2 mps 746 mmHg 74%
    01:00 -1°C° 0 mm 2 mps 746 mmHg 76%
    02:00 -1°C° 0 mm 2 mps 746 mmHg 78%
    03:00 -1°C° 0 mm 2 mps 746 mmHg 78%
    04:00 -2°C° 0 mm 3 mps 746 mmHg 79%
    05:00 -2°C° 0 mm 3 mps 745 mmHg 80%
    06:00 -2°C° 0 mm 3 mps 745 mmHg 78%
    07:00 -1°C° 0 mm 3 mps 745 mmHg 77%
    08:00 -2°C° 0 mm 4 mps 745 mmHg 75%
    09:00 -1°C° 0 mm 4 mps 745 mmHg 69%
    10:00 0°C° 0 mm 4 mps 745 mmHg 64%
    11:00 +2°C° 0 mm 5 mps 745 mmHg 58%
    12:00 +2°C° 0 mm 5 mps 744 mmHg 57%
    13:00 +3°C° 0 mm 5 mps 744 mmHg 57%
    14:00 +5°C° 0 mm 5 mps 743 mmHg 57%
    15:00 +3°C° 0 mm 5 mps 743 mmHg 62%
    16:00 +2°C° 0 mm 5 mps 742 mmHg 66%
    17:00 +3°C° 0 mm 4 mps 742 mmHg 70%
    18:00 +1°C° 0 mm 5 mps 742 mmHg 72%
    19:00 0°C° 0 mm 5 mps 741 mmHg 74%
    20:00 0°C° 0 mm 5 mps 741 mmHg 77%
    21:00 0°C° 0 mm 5 mps 741 mmHg 78%
    22:00 -1°C° 0 mm 5 mps 741 mmHg 79%
    23:00 -1°C° 0 mm 5 mps 740 mmHg 80%

    20 February, Wednesday

    Time Temperature Precipitation Wind Pressure Humidity
    00:00 -1°C° 0 mm 5 mps 740 mmHg 82%
    01:00 -1°C° 0 mm 5 mps 740 mmHg 84%
    02:00 -1°C° 0 mm 5 mps 740 mmHg 86%
    03:00 -2°C° 0 mm 5 mps 739 mmHg 89%
    04:00 -2°C° 0 mm 4 mps 739 mmHg 91%
    05:00 -2°C° 0 mm 4 mps 738 mmHg 93%
    06:00 -1°C° 0 mm 4 mps 738 mmHg 93%
    07:00 -1°C° 0 mm 4 mps 738 mmHg 92%
    08:00 -1°C° 0 mm 4 mps 739 mmHg 92%
    09:00 +1°C° 0 mm 4 mps 739 mmHg 85%
    10:00 +3°C° 0 mm 4 mps 739 mmHg 79%
    11:00 +5°C° 0 mm 5 mps 739 mmHg 72%
    12:00 +5°C° 0 mm 5 mps 739 mmHg 73%
    13:00 +5°C° 0 mm 5 mps 739 mmHg 75%
    14:00 +4°C° 0 mm 6 mps 739 mmHg 76%
    15:00 +5°C° 0 mm 5 mps 739 mmHg 77%
    16:00 +3°C° 0 mm 5 mps 739 mmHg 78%
    17:00 +4°C° 0 mm 4 mps 739 mmHg 79%
    18:00 +2°C° 0 mm 5 mps 740 mmHg 80%
    19:00 +2°C° 0 mm 5 mps 740 mmHg 81%
    20:00 +1°C° 0 mm 5 mps 740 mmHg 82%
    21:00 +1°C° 0 mm 5 mps 740 mmHg 80%
    22:00 +1°C° 0 mm 5 mps 740 mmHg 78%
    23:00 +1°C° 0 mm 5 mps 740 mmHg 76%

    21 February, Thursday

    Time Temperature Precipitation Wind Pressure Humidity
    00:00 +1°C° 0 mm 5 mps 740 mmHg 79%
    01:00 +1°C° 0 mm 6 mps 740 mmHg 82%
    02:00 -1°C° 0 mm 6 mps 740 mmHg 85%
    03:00 -1°C° 0 mm 6 mps 740 mmHg 86%
    04:00 -1°C° 0 mm 6 mps 740 mmHg 87%
    05:00 -1°C° 0 mm 6 mps 740 mmHg 88%
    06:00 -1°C° 0 mm 6 mps 740 mmHg 87%
    07:00 -1°C° 0 mm 6 mps 741 mmHg 87%
    08:00 0°C° 0 mm 5 mps 741 mmHg 87%
    09:00 +1°C° 0 mm 6 mps 741 mmHg 81%
    10:00 0°C° 0 mm 7 mps 741 mmHg 76%
    11:00 +1°C° 0 mm 8 mps 741 mmHg 70%
    12:00 +2°C° 0 mm 8 mps 741 mmHg 66%
    13:00 +2°C° 0 mm 8 mps 741 mmHg 63%
    14:00 +3°C° 0 mm 9 mps 741 mmHg 59%
    15:00 +2°C° 0 mm 8 mps 741 mmHg 62%
    16:00 +1°C° 0 mm 8 mps 741 mmHg 66%
    17:00 +2°C° 0 mm 7 mps 741 mmHg 69%
    18:00 +1°C° 0 mm 6 mps 742 mmHg 70%
    19:00 0°C° 0 mm 5 mps 742 mmHg 72%
    20:00 -1°C° 0 mm 5 mps 743 mmHg 73%
    21:00 -2°C° 0 mm 4 mps 743 mmHg 72%
    22:00 -2°C° 0 mm 3 mps 743 mmHg 71%
    23:00 -2°C° 0 mm 3 mps 744 mmHg 69%

    22 February, Friday

    Time Temperature Precipitation Wind Pressure Humidity
    00:00 -4°C° 0 mm 3 mps 744 mmHg 67%
    01:00 -4°C° 0 mm 3 mps 744 mmHg 66%
    02:00 -4°C° 0 mm 3 mps 744 mmHg 64%
    03:00 -4°C° 0 mm 3 mps 744 mmHg 62%
    04:00 -4°C° 0 mm 3 mps 745 mmHg 60%
    05:00 -4°C° 0 mm 4 mps 745 mmHg 57%
    06:00 -4°C° 0 mm 4 mps 745 mmHg 57%
    07:00 -5°C° 0 mm 5 mps 745 mmHg 57%
    08:00 -5°C° 0 mm 5 mps 746 mmHg 56%
    09:00 -5°C° 0 mm 5 mps 746 mmHg 54%
    10:00 -4°C° 0 mm 6 mps 747 mmHg 52%
    11:00 -4°C° 0 mm 6 mps 747 mmHg 49%
    12:00 -4°C° 0 mm 6 mps 747 mmHg 48%
    13:00 -4°C° 0 mm 7 mps 747 mmHg 47%
    14:00 -4°C° 0 mm 7 mps 748 mmHg 46%
    15:00 -4°C° 0 mm 7 mps 748 mmHg 44%
    16:00 -6°C° 0 mm 7 mps 749 mmHg 43%
    17:00 -7°C° 0 mm 7 mps 749 mmHg 42%
    18:00 -7°C° 0 mm 7 mps 750 mmHg 43%
    19:00 -8°C° 0 mm 7 mps 751 mmHg 43%
    20:00 -9°C° 0 mm 7 mps 752 mmHg 44%
    21:00 -9°C° 0 mm 7 mps 753 mmHg 45%
    22:00 -9°C° 0 mm 7 mps 753 mmHg 46%
    23:00 -9°C° 0 mm 6 mps 754 mmHg 46%
    Show more